Regional Weather Roundup
Issued by NWS

Home | Current Version | Previous Version | Graphics & Text | Print | Product List | Glossary On
Versions: 1 2 3 4 5 6 7 8 9 10 11 12 13 14 15 16 17 18 19 20 21 22 23 24 25 26 27 28 29 30 31 32 33 34 35 36 37 38 39 40 41 42 43 44 45 46 47 48 49 50
000
ASUS43 KMKX 111321
RWRWI

WISCONSIN REGIONAL WEATHER ROUNDUP
NATIONAL WEATHER SERVICE MILWAUKEE/SULLIVAN WI
700 AM CST SUN DEC 11 2016

NOTE: "FAIR" INDICATES FEW OR NO CLOUDS BELOW 12,000 FEET WITH NO
SIGNIFICANT WEATHER AND/OR OBSTRUCTIONS TO VISIBILITY.

WIZ001-002-006>008-014>016-023>028-111400-
NORTHWEST WISCONSIN

CITY           SKY/WX    TMP DP  RH WIND       PRES   REMARKS
SUPERIOR ARPT  CLOUDY    13   6  73 E8        30.09F WCI   2
ASHLAND        LGT SNOW  10   6  84 E5        30.10F FOG     WCI   2
HAYWARD        LGT SNOW  12   8  84 NE7       30.04S FOG     WCI   1
SIREN          LGT SNOW  13  10  87 E3        30.03F
CUMBERLAND     LGT SNOW  14  10  85 E7        30.00S WCI   4
RICE LAKE      LGT SNOW  15  12  88 E7        30.02F VSB 1   WCI   5
CHETEK         LGT SNOW  14  11  90 E6        30.02R VSB 1   WCI   5
LADYSMITH      LGT SNOW  14  10  85 E8        30.03S WCI   3
EAU CLAIRE     LGT SNOW  17  14  88 NE6       30.01S VSB 1   WCI   9
MENOMONIE      LGT SNOW  17  15  90 NE8       29.99F VSB 1   WCI   7
NEW RICHMOND   LGT SNOW  16  12  86 E9        29.98F WCI   4
OSCEOLA        LGT SNOW  16  13  89 E6        30.02F VSB 1   WCI   7
$$

WIZ003>005-009-010-017-018-111400-
NORTH CENTRAL WISCONSIN

CITY           SKY/WX    TMP DP  RH WIND       PRES   REMARKS
MANITOWISH WTR LGT SNOW   9   7  89 E6        30.02S WCI   0
ARBOR VITAE    LGT SNOW  11   8  85 E6        30.02S WCI   2
WOODRUFF       LGT SNOW  11   8  85 E6        30.02S WCI   2
RHINELANDER    LGT SNOW  11   8  88 E8        30.03F VSB 1   WCI  -1
EAGLE RIVER    LGT SNOW   9   4  80 SE7       30.03F WCI  -2
LAND O LAKES   LGT SNOW  10   6  85 E5        30.05F WCI   1
PHILLIPS       LGT SNOW  11   8  89 E5        30.02S WCI   3
TOMAHAWK       LGT SNOW  11   8  87 E3        30.03F
MEDFORD        LGT SNOW  12   9  85 E9        29.99F WCI   0
MERRILL        LGT SNOW  13  10  87 E7        30.04F WCI   2
$$

WIZ029-030-035-036-043>047-111400-
CENTRAL WISCONSIN

CITY           SKY/WX    TMP DP  RH WIND       PRES   REMARKS
WAUSAU         LGT SNOW  13  10  88 E9        30.02F FOG     WCI   1
MOSINEE        SNOW      12  12 100 E12       30.03F VSB 1/2 WCI  -2
MARSHFIELD     LGT SNOW  15  11  83 E12       29.99F VSB 3/4 WCI   2
STEVENS POINT  LGT SNOW  13  11  92 E10       30.03F VSB 3/4 WCI   0
WAUPACA        LGT SNOW  20  16  86 CALM      30.05F
WAUTOMA        LGT SNOW  20  17  88 E8        30.04F FOG     WCI  10
WISC RAPIDS    LGT SNOW  17  15  92 E12       30.02F FOG     WCI   4
CAMP DOUGLAS   LGT SNOW  19  18  93 E9        29.97F FOG     WCI   9
$$

WIZ011>013-019>022-031-037>040-048>050-111400-
NORTHEAST WISCONSIN

CITY           SKY/WX    TMP DP  RH WIND       PRES   REMARKS
ANTIGO         LGT SNOW  11   8  89 E7        30.03F WCI   0
SHAWANO        LGT SNOW  17  14  86 E8        30.09F VSB 1   WCI   7
OCONTO         CLOUDY    16  14  90 N6        30.11F WCI   8
STURGEON BAY   LGT SNOW  19  18  93 NE8       30.10F FOG     WCI   9
GREEN BAY      LGT SNOW  21  19  92 NE13      30.09F FOG     WCI   9
MANITOWOC      SNOW      23  21  92 N5        30.07F VSB 1/2 WCI  17
APPLETON       LGT SNOW N/A N/A N/A NE8       30.05F VSB 1
CLINTONVILLE   LGT SNOW  18  14  86 NE7       30.07F WCI   8
OSHKOSH        SNOW      22  19  89 E9        30.04F VSB 1/2 WCI  12
$$

WIZ032>034-041-042-053>061-111400-
SOUTHWEST WISCONSIN

CITY           SKY/WX    TMP DP  RH WIND       PRES   REMARKS
LA CROSSE      LGT SNOW  22  18  85 VRB5      29.98F FOG     WCI  16
SPARTA         LGT SNOW  20  18  93 E6        29.98F WCI  12
VIROQUA        CLOUDY    20  19  95 E10       29.93S WCI   8
BOSCOBEL       CLOUDY    24  21  88 N3        30.01R
PRAIRIE DU CHI CLOUDY    25  20  83 E6        29.95F WCI  18
PLATTEVILLE    CLOUDY    25  24  97 E8        29.95S WCI  16
$$

WIZ056-057-062-063-064-067-068-111400-
SOUTH CENTRAL WISCONSIN

CITY           SKY/WX    TMP DP  RH WIND       PRES   REMARKS
REEDSBURG      FLURRIES  20  19  96 E6        29.97F WCI  13
BARABOO/DELLS  LGT SNOW  21  19  93 E6        30.00R WCI  13
LONE ROCK      CLOUDY    23  20  88 E9        29.97F WCI  13
MINERAL POINT  FLURRIES  27  25  93 SE12      29.94S WCI  16
MADISON        FLURRIES  23  20  88 SE7       30.02R WCI  15
MIDDLETON      CLOUDY    25  23  91 SE7       29.98F WCI  17
WATERTOWN      CLOUDY    24  23  98 SE5       30.02R WCI  18
MONROE         CLOUDY    25  23  93 SE8       29.98R WCI  16
JANESVILLE     LGT SNOW  27  25  93 SE9       29.99F WCI  17
$$

WIZ051-052-058>065-066-070>072-111400-
SOUTHEAST WISCONSIN

CITY           SKY/WX    TMP DP  RH WIND       PRES   REMARKS
MILWAUKEE      LGT SNOW  29  24  82 S12       30.03F WCI  19
WAUKESHA       LGT SNOW  25  19  80 SE6       30.03F WCI  18
MILWAUKEE/TIMM LGT SNOW  27  23  86 S8        30.03F WCI  18
RACINE         LGT SNOW  30  26  85 S12       30.04F FOG     WCI  20
BURLINGTON     LGT SNOW  29  28  95 SE8       30.01F WCI  21
KENOSHA        LGT SNOW  28  24  85 S13       30.02F FOG     WCI  17
FOND DU LAC    LGT SNOW  23  19  85 E7        30.04F FOG     WCI  15
SHEBOYGAN      LGT SNOW  23  20  88 NW6       30.04F FOG     WCI  16
WEST BEND      LGT SNOW  27  27 100 CALM      30.03F
JUNEAU         LGT SNOW  22  21  94 E7        30.03F WCI  14
$$

LSZ147-162-111400-
LAKE SUPERIOR

STATION/POSITION TIME  TEMP    WIND        PRES    WAVE
                       AIR SEA DIR/SP/G            HT/PER
                 (UTC) (F)     (DEG/KT/KT) (MB)    (FT/S)
DEVILS ISLAND    1300   20     100/ 14/ 20 1020.9F
PORT WING        1240   12     100/  3/  7 1019.6F
SAXON HARBOR     1240   10     230/  2/  3 1020.0F
$$

LMZ867-665-643>646-111400-
LAKE MICHIGAN

STATION/POSITION TIME  TEMP    WIND        PRES    WAVE
                       AIR SEA DIR/SP/G            HT/PER
                 (UTC) (F)     (DEG/KT/KT) (MB)    (FT/S)
CHAMBERS ISLAND  1240   22      50/  6/  8 1020.3F
NORTHPORT PIER   1240   22      20/  3/  6 1021.3F
SISTER BAY       1205   19      40/  2/  5   N/A
ALGOMA LAKESHORE 1136          360/  7/  9   N/A
KEWAUNEE LAKESHO 1254   26      70/  6/ 11 1018.6F
SHEBOYGAN LAKESH 1300   29      90/ 12/ 15 1018.0F
PORT WASHINGTON  1230   26     350/  2/  3 1019.0F
KENOSHA   LAKESH 1300   30     180/ 19/ 27 1016.9
$$

TC  - TEMPERATURE IN CELSIUS
VSB - VISIBILITY IN STATUTE MILES
WCI - WIND CHILL INDEX
HX  - HEAT INDEX




USA.gov is the U.S. government's official web portal to all federal, state and local government web resources and services.